Theta_e
321 323 326 327 330 336 337 338 337 341 340 340 339 342 346 343 357 361 346 349 351 334 334 341 345 345 343 341 342 345 344 343 339 340 336 328 324 324 325 328 326 330 332 333 331 324 325 324 325
321 323 325 326 332 336 337 336 338 340 337 336 337 342 351 341 344 355 347 351 351 328 335 341 342 339 338 339 342 344 345 344 339 340 336 329 325 324 326 332 331 330 326 323 323 325 325 325 327
321 322 325 329 332 335 336 336 337 339 336 336 338 346 355 345 341 351 347 353 347 332 332 336 338 336 336 337 342 344 345 344 341 339 335 327 327 324 325 329 326 323 322 320 323 326 325 326 330
323 324 325 329 333 335 336 336 336 338 338 335 338 353 343 349 353 349 348 353 352 343 334 336 336 335 333 335 342 343 344 342 339 337 332 326 328 324 323 324 323 323 322 322 324 325 325 326 331
324 323 328 331 333 333 335 336 336 338 339 335 337 351 349 349 350 348 349 351 350 350 335 336 336 333 332 333 338 340 339 339 337 335 328 324 327 324 323 323 324 323 322 323 324 324 324 324 326
324 323 328 332 334 335 335 335 338 339 339 336 335 351 353 351 347 347 349 349 349 350 335 335 335 332 331 332 334 334 334 335 334 330 324 323 325 324 323 323 324 323 322 322 323 324 324 324 324
324 325 327 331 334 335 336 335 338 339 338 337 334 346 354 351 349 347 347 349 350 351 335 335 334 332 332 332 332 332 332 332 329 325 322 322 322 324 324 323 324 324 322 321 322 323 323 323 323
323 325 327 330 334 334 335 336 337 338 338 336 335 340 353 342 347 347 347 349 352 352 335 335 334 333 332 332 331 329 327 326 324 323 322 322 322 324 324 323 324 324 322 321 321 321 322 322 322
323 325 328 328 332 333 334 337 337 337 336 334 335 352 354 351 351 348 348 350 351 351 344 336 333 333 333 332 331 326 323 323 323 322 322 322 323 324 323 324 324 324 323 322 321 320 320 320 321
323 325 325 328 330 330 333 333 336 335 333 332 334 354 354 351 347 348 348 349 349 351 348 345 340 334 336 334 332 327 324 322 323 323 322 322 322 323 323 326 325 324 323 323 322 322 321 320 320
322 325 325 326 329 330 333 333 334 328 332 331 332 338 354 351 350 349 348 349 349 350 348 346 345 340 345 344 336 332 328 325 322 322 323 323 325 341 340 341 336 329 322 322 322 323 323 322 323
321 323 324 326 328 330 331 332 328 327 330 329 331 334 342 352 349 349 348 348 348 349 347 347 346 343 345 346 345 336 338 334 330 326 323 324 333 340 341 339 339 339 339 327 331 329 340 339 337
321 323 324 324 327 327 330 327 327 326 327 328 326 328 333 345 348 347 346 347 347 348 347 348 348 346 346 347 347 346 346 346 345 344 340 333 335 342 342 342 340 343 345 344 344 342 340 342 343
319 321 324 326 327 327 328 330 327 326 328 329 327 326 328 333 336 346 347 346 347 348 348 349 348 347 346 347 348 348 347 348 348 349 349 347 345 347 348 348 347 346 348 346 346 347 346 347 349
319 320 323 328 327 327 327 326 327 326 327 328 330 327 328 327 334 346 347 347 349 349 348 349 350 346 338 346 349 347 350 350 349 350 350 350 348 350 351 350 349 347 345 346 345 346 346 346 343
318 321 328 328 328 328 327 329 329 328 327 328 331 330 328 326 329 338 345 348 348 347 351 350 352 353 346 339 346 351 349 350 351 351 351 351 350 345 350 349 349 347 347 348 348 346 350 349 347
318 327 330 329 328 327 329 329 330 329 329 328 330 330 329 327 326 329 333 340 334 341 341 352 353 353 352 352 349 347 351 352 353 350 351 351 352 349 345 350 347 349 349 349 348 347 347 348 346
317 322 329 329 328 327 328 331 330 330 330 329 330 329 327 328 327 328 332 338 335 332 341 351 351 351 351 350 351 358 355 355 353 353 352 352 351 351 342 347 349 350 349 347 343 345 343 345 346
317 325 326 327 325 329 330 333 331 328 331 330 328 327 326 326 327 328 327 330 329 336 334 344 345 347 352 353 354 354 357 354 352 351 352 350 350 351 346 343 346 346 347 344 346 346 346 344 345
318 324 328 327 327 329 331 333 328 327 330 329 327 326 327 324 326 328 327 327 325 325 325 326 340 346 345 350 350 349 345 350 351 348 350 350 347 349 346 344 348 346 343 342 342 341 337 333 339
318 321 326 326 327 326 329 333 324 324 324 328 328 327 327 324 324 325 326 324 326 328 326 326 326 329 341 340 346 346 347 343 345 346 346 350 347 339 348 347 345 348 346 346 344 337 326 329 331
318 320 322 321 321 323 326 320 324 323 322 324 327 327 326 325 324 324 323 323 325 326 328 327 327 326 324 326 345 341 338 343 337 347 347 346 347 350 347 345 344 342 339 341 331 333 332 326 323
319 320 320 321 322 322 321 321 322 324 322 322 324 324 324 324 324 322 323 325 324 325 328 328 328 329 329 325 343 344 344 346 344 344 345 348 347 349 347 346 341 340 333 333 333 330 324 318 316
318 318 319 321 322 322 324 323 322 324 323 324 324 323 323 324 324 326 329 330 330 330 329 332 333 334 335 346 342 346 349 343 346 344 347 348 347 347 347 341 333 324 319 319 320 318 316 315 314
318 320 323 321 321 323 323 323 324 326 325 323 324 323 322 325 326 327 327 328 330 331 332 331 338 340 344 347 349 345 350 350 344 345 347 348 346 340 338 332 328 321 319 319 319 317 317 315 314
318 321 323 323 323 321 322 324 324 325 325 323 322 323 326 326 325 325 330 330 332 332 333 334 336 340 343 347 350 348 343 344 345 347 345 341 337 334 332 329 325 321 319 319 318 317 316 316 316
318 320 322 323 323 323 322 325 327 326 325 326 325 327 325 327 327 329 332 335 336 337 336 337 339 342 343 344 343 344 345 345 346 343 340 336 333 331 331 330 329 327 320 319 319 319 318 318 318
321 321 323 323 325 331 324 327 327 328 327 328 328 327 326 326 326 328 332 332 334 335 336 337 337 336 336 336 337 338 338 336 336 335 333 331 329 328 329 332 329 328 328 326 324 324 323 321 321
321 322 322 324 326 329 329 329 328 328 328 328 328 326 326 325 326 326 327 329 331 330 330 330 331 331 330 330 331 331 331 330 330 330 330 329 327 327 327 328 331 331 331 330 330 329 327 325 325
321 322 324 326 327 326 330 331 327 329 327 328 327 326 325 325 325 325 326 326 326 326 326 326 326 325 324 324 325 326 326 327 326 326 326 324 323 323 322 323 324 327 328 328 329 329 329 328 328
Wind_Speed
7 10 13 15 6 8 16 21 23 8 3 1 4 7 15 14 19 5 16 24 23 22 24 23 23 21 18 17 15 16 15 13 12 11 10 11 12 13 12 11 11 10 8 6 6 6 7 8 8
9 10 11 14 11 13 15 22 24 7 9 7 4 7 18 7 12 18 19 20 19 26 25 23 22 20 18 16 16 17 17 14 12 10 8 9 11 11 11 10 9 7 5 4 5 6 6 7 7
8 9 14 9 14 16 18 21 20 11 10 5 3 3 15 7 8 19 27 24 19 28 24 23 22 21 20 18 17 17 17 14 11 9 7 7 10 11 10 9 7 6 5 5 6 6 6 6 6
9 12 15 12 20 21 25 25 25 20 9 6 9 6 15 35 22 22 27 23 22 25 27 26 22 21 20 19 18 17 16 14 11 9 7 8 10 11 10 9 7 5 4 5 5 5 4 5 5
15 16 13 16 23 25 23 27 25 5 20 11 12 15 21 19 24 32 30 24 25 25 27 26 23 21 20 20 19 18 15 13 11 10 9 9 11 12 10 9 6 5 4 5 5 4 4 4 4
21 21 15 18 24 24 24 31 7 14 21 9 9 17 19 24 27 28 26 26 23 26 27 26 24 21 20 20 19 18 15 14 12 11 10 11 12 13 11 9 7 5 5 5 5 4 3 3 3
20 15 21 23 22 25 24 31 5 14 18 17 10 9 14 22 20 27 24 27 25 22 27 27 26 23 21 20 19 17 15 14 12 11 11 12 14 14 12 10 8 6 5 5 4 4 4 4 4
26 15 25 23 21 26 27 28 23 24 20 22 6 11 13 32 27 32 30 27 24 19 26 27 26 24 22 21 19 17 15 14 13 13 13 14 15 15 13 11 9 7 6 5 5 5 6 6 7
26 16 18 27 25 22 30 18 12 18 20 11 5 17 20 34 32 30 34 30 25 23 21 25 25 24 22 21 20 18 17 16 15 15 15 15 15 15 14 12 11 8 7 7 7 7 8 9 9
22 17 26 23 23 13 5 11 22 16 10 11 12 21 22 22 18 25 28 31 29 27 24 23 23 25 22 20 20 19 18 18 17 17 16 16 15 13 13 11 10 10 10 9 9 9 10 11 10
30 23 22 29 25 11 5 11 28 30 16 18 15 11 17 24 29 30 28 27 27 27 25 25 24 22 22 19 19 20 19 18 18 17 17 16 14 9 9 13 13 14 13 11 11 11 12 12 11
27 32 34 29 24 19 11 19 23 24 26 13 10 2 7 25 25 27 26 27 28 30 28 27 28 22 25 23 15 19 16 17 18 18 18 18 17 16 17 15 13 8 10 10 12 10 9 12 11
29 28 30 37 24 14 26 16 17 27 32 21 16 12 10 11 15 26 22 26 29 31 32 30 29 26 31 23 15 13 17 12 10 11 15 17 21 16 17 15 12 18 11 7 10 7 11 12 14
33 33 35 24 22 19 24 22 19 28 24 30 20 24 16 10 9 45 24 27 32 34 34 30 30 27 35 31 22 18 17 18 14 15 13 12 16 16 17 14 18 20 16 15 15 11 10 13 11
35 29 27 15 25 20 30 22 24 29 24 30 35 27 29 21 15 31 13 18 11 21 33 30 26 24 31 33 26 22 21 20 18 19 17 17 16 19 17 17 15 17 19 18 19 17 17 18 18
30 29 17 22 24 23 24 21 19 26 28 27 26 27 30 33 21 18 26 17 10 8 17 27 22 24 22 29 30 23 21 20 19 18 19 21 20 19 20 21 18 18 18 20 15 12 8 12 14
25 16 18 20 20 20 25 25 20 29 28 21 30 34 36 37 31 16 14 12 8 22 34 24 24 22 18 19 20 26 22 20 18 18 21 20 21 20 24 21 21 19 22 28 11 10 11 14 13
22 24 20 22 12 26 23 24 20 25 30 29 30 31 40 39 34 29 14 13 2 10 8 19 21 22 20 16 18 16 18 19 19 20 22 20 21 23 22 24 19 20 25 11 11 10 12 13 16
25 14 21 22 20 28 27 24 20 28 19 29 27 27 33 33 29 27 22 16 12 20 24 18 21 22 18 20 18 21 21 20 22 25 22 24 23 24 22 22 20 16 16 11 11 13 11 14 12
30 25 27 27 30 24 25 27 21 19 22 29 30 26 28 32 18 38 31 26 20 23 23 23 24 20 25 21 19 15 16 21 23 16 21 23 23 24 22 21 18 15 12 13 18 22 18 18 17
28 24 28 26 24 31 26 29 20 23 22 28 29 30 24 30 28 21 10 8 9 18 19 22 23 27 26 25 22 23 18 19 19 20 21 24 22 26 24 21 19 15 18 18 17 18 15 12 12
24 23 31 17 14 17 27 13 15 21 21 21 27 30 24 24 18 25 22 14 15 12 16 21 26 23 26 26 23 26 28 22 22 22 20 24 26 30 27 24 22 28 25 22 16 17 16 16 15
26 24 26 21 22 18 19 12 19 22 21 19 19 28 35 34 27 21 20 11 16 18 14 21 19 21 25 24 25 19 21 18 15 20 20 25 24 26 24 23 26 26 24 19 20 21 16 16 15
23 24 23 16 12 14 17 17 15 20 23 22 24 28 32 32 35 13 8 5 3 3 8 13 16 18 18 21 20 21 19 21 16 20 19 24 24 25 26 22 24 21 18 18 16 15 15 15 14
28 19 9 10 9 12 16 15 16 23 25 25 20 27 29 14 14 8 3 0 6 5 6 8 8 12 12 17 14 20 21 16 22 15 26 25 24 21 24 21 22 21 16 15 14 15 15 15 14
24 20 13 16 14 14 16 18 18 11 24 37 33 27 21 16 13 9 6 1 4 3 5 8 7 9 11 13 13 14 13 17 21 14 17 15 14 16 16 21 23 17 15 15 16 17 17 17 17
22 24 25 18 6 16 16 11 18 20 16 17 28 25 23 19 12 12 12 7 8 4 5 6 6 6 6 6 11 12 13 13 11 12 16 12 15 13 22 20 20 21 20 20 20 20 21 21 21
24 20 19 2 7 6 13 17 15 19 19 18 17 18 15 13 12 12 16 12 8 9 12 12 12 11 8 7 3 3 5 5 9 9 16 16 15 18 8 11 17 19 20 22 23 26 26 26 26
14 17 15 13 15 6 4 5 9 18 16 18 19 23 17 13 13 12 11 9 14 14 12 11 9 10 9 7 4 5 5 4 3 5 8 13 18 19 23 21 17 17 20 24 27 29 31 31 31
20 18 20 11 15 10 7 3 3 13 15 17 22 22 17 13 10 12 13 11 10 10 8 8 10 9 7 6 3 3 6 8 10 13 15 17 20 22 22 23 24 23 25 26 27 31 34 35 36
Wind_Direction
262 296 295 280 253 232 251 257 256 297 221 55 33 48 102 47 111 292 131 143 163 153 154 160 161 161 159 159 161 165 162 157 152 135 118 112 120 120 120 123 128 124 126 121 108 104 105 108 114
259 288 268 267 245 255 250 246 257 175 78 54 311 156 80 356 130 145 147 142 163 147 154 158 157 157 155 157 163 166 165 161 155 140 125 118 129 132 136 138 136 131 128 126 118 111 107 113 123
266 272 275 243 240 245 258 250 242 207 131 174 259 121 91 21 42 138 138 149 159 146 151 155 157 157 155 156 165 166 165 160 157 153 141 138 144 147 152 155 149 138 137 134 131 124 119 124 132
258 250 243 260 249 237 248 267 307 315 165 192 209 60 106 130 175 156 145 154 147 146 154 155 158 157 156 155 163 164 166 167 163 164 161 157 157 160 165 166 158 148 141 141 140 133 135 139 146
245 252 241 242 242 253 255 250 274 262 313 195 221 115 128 126 149 147 150 146 149 153 153 155 157 159 156 155 161 164 168 173 174 174 173 169 168 171 175 173 166 163 159 161 162 161 162 164 175
244 231 246 236 247 244 250 259 206 235 244 227 222 131 109 126 137 145 147 147 153 169 156 156 157 159 158 158 161 164 170 177 182 181 178 176 178 179 182 184 182 184 185 185 186 185 191 204 211
237 238 236 248 252 246 242 248 153 267 243 255 195 146 119 132 144 149 150 151 159 176 165 159 158 162 162 161 162 166 172 179 182 185 182 182 183 185 189 194 198 204 204 206 207 213 224 246 263
236 245 249 240 247 257 256 243 233 219 258 255 228 207 170 174 173 162 153 155 157 160 164 162 162 163 165 164 164 168 174 181 185 186 186 187 188 192 197 202 209 218 225 230 232 234 238 243 245
230 245 239 243 236 250 266 345 290 264 235 282 231 92 147 155 161 163 156 154 158 162 166 167 166 166 169 170 168 171 177 181 185 187 188 190 194 200 205 211 218 225 236 243 245 247 252 258 265
235 229 240 241 251 302 284 329 268 262 268 254 229 108 142 163 146 167 166 158 162 165 164 171 171 171 168 176 174 176 181 183 186 187 189 192 199 204 221 225 236 241 243 246 251 257 261 263 273
230 241 227 248 249 312 172 178 247 312 221 228 243 182 160 174 179 173 175 170 167 169 168 175 177 172 164 180 180 186 186 189 191 193 194 198 193 213 230 237 250 252 250 251 254 259 273 280 280
226 240 244 235 253 315 216 199 284 303 291 352 327 213 233 189 195 190 182 174 172 172 174 177 185 178 164 194 198 196 192 196 198 201 202 200 192 194 230 225 253 278 286 252 273 269 306 308 301
229 232 233 239 254 312 292 238 259 289 292 322 310 304 270 251 245 206 192 182 178 175 175 176 185 182 164 188 201 186 185 205 206 210 217 209 192 199 227 220 230 253 273 278 274 273 252 272 279
228 231 239 268 228 245 291 264 258 268 297 319 301 294 281 233 313 264 205 200 185 178 176 182 185 188 171 175 188 190 183 208 199 218 236 232 205 202 224 232 222 225 229 249 254 259 254 269 274
230 235 227 222 274 231 264 258 250 256 276 294 315 277 295 281 199 232 262 178 152 162 174 182 192 196 181 179 179 197 192 191 205 205 229 233 231 205 228 225 239 232 232 229 233 233 238 247 266
228 228 207 214 239 223 243 266 268 250 257 283 292 304 289 286 272 247 261 241 296 212 188 186 186 207 192 191 190 187 194 204 197 212 217 235 244 226 219 224 222 239 232 236 221 213 271 282 284
222 211 204 234 233 237 226 251 257 258 250 247 275 293 299 271 278 274 274 233 258 278 290 182 186 214 217 204 200 203 199 203 219 218 218 227 237 244 222 224 218 229 239 256 218 240 246 255 271
221 213 198 222 226 225 226 229 236 234 263 212 249 282 292 299 259 276 257 219 250 206 273 200 195 201 225 225 208 210 204 214 217 224 225 222 234 241 245 215 214 235 242 248 233 255 260 254 262
225 232 222 223 222 244 217 225 228 249 218 214 227 248 272 302 239 260 271 194 162 202 206 197 203 202 208 209 212 202 216 217 225 225 230 233 234 243 241 225 214 235 240 240 246 241 260 276 291
233 191 219 231 221 217 208 224 225 228 225 221 215 232 271 297 290 230 232 239 210 218 218 221 209 199 205 204 215 225 215 218 230 237 229 232 233 237 242 225 215 228 246 234 240 247 253 254 256
231 198 229 226 207 210 221 220 217 213 216 217 210 240 267 275 291 312 289 280 257 195 211 230 231 217 214 212 212 210 208 215 221 226 228 229 233 239 235 221 208 240 211 218 238 251 256 262 262
222 223 230 242 214 218 206 242 216 204 208 208 197 223 216 262 298 288 301 281 259 251 244 250 253 236 224 215 213 219 217 218 220 220 226 236 239 231 244 219 217 222 230 233 223 241 250 261 276
223 223 218 198 222 217 207 219 261 187 206 202 198 204 209 204 207 245 286 240 271 255 246 237 240 241 228 233 203 224 222 212 224 226 229 229 235 238 223 214 223 226 226 212 219 239 256 263 270
220 232 227 236 208 225 228 206 232 183 194 191 195 206 213 206 206 194 167 161 171 216 225 215 225 229 219 230 225 209 228 231 222 229 227 215 222 222 221 221 216 219 216 223 240 250 255 262 266
218 216 197 211 227 230 218 234 250 177 178 188 183 186 214 146 129 123 115 264 183 204 223 215 192 203 217 221 241 222 218 219 227 239 218 206 216 223 215 215 220 219 225 237 246 253 263 269 273
212 211 202 192 210 223 231 224 230 191 175 175 175 191 137 139 161 165 135 110 124 197 218 209 204 211 228 223 236 248 244 243 226 225 213 204 212 236 234 224 227 227 235 239 246 254 264 268 266
204 214 226 207 301 206 206 89 62 109 115 143 163 127 134 126 126 143 132 125 91 82 112 148 142 164 199 215 231 230 227 226 218 238 221 203 218 231 223 227 238 251 252 247 254 259 260 262 267
208 203 232 110 261 269 211 159 147 146 145 131 126 117 113 131 152 121 117 122 129 117 101 104 110 111 110 107 119 191 141 148 201 180 204 208 213 214 199 228 247 258 262 260 253 254 259 261 262
194 203 219 224 229 230 132 332 292 150 161 144 136 134 146 155 138 143 137 132 123 102 91 90 93 99 94 95 105 132 147 195 232 243 236 233 233 231 234 236 239 245 255 265 263 261 262 263 261
207 207 206 227 235 258 102 201 35 182 156 135 143 147 147 138 133 130 121 119 102 98 90 83 91 84 78 58 50 247 224 232 243 248 246 247 251 254 255 256 258 257 255 257 263 264 261 260 260